STARLINK-5683, 55452

Orbit data source: Space-Track

STARLINK-5683, 55452 is a payload satellite owned by SpaceX/Seattle (US) in LEO that was launched on Thu, 02 Feb 2023 UTC via an FALCON 9 launch vehicle from the Air Force Eastern Test Range (AFETR). Payload-class satellites include a variety of spacecraft equipped with specific instruments for various scientific and technological missions. These include communications satellites like Starlink; space stations such as the ISS; scientific satellites like the Hubble; Earth observation satellites from companies like Planet Labs, Umbra, and HawkEye 360; GPS; miniature CubeSats for education and research; and military/defense satellites.

Loading next visibility...
Identifier
55452, 2023-015D
Orbit
LEO
Country
Flag of USUS
Related business
Manufacturer
SpaceX/Seattle
Mission
Operational spacecraft
Bus & Motor
STARLINK, Unknown motor
Mass
305 kg wet, ~290 kg dry
Launch date (UTC)
2023-02-02 (3 years ago)
Launch vehicle
FALCON 9
Launch site
Air Force Eastern Test Range (AFETR)
Object type
Payload
Rocket body
Debris
Shape & HBR
Unknown shape, 10.1 m
Radar Cross Section
Large (>1 m²)

Expand to show TLE details & history
Last TLE update: 2 days ago

TLE from 2 days ago
0 STARLINK-5683
1 55452U 23015D   26034.61004051 -.00000333  00000-0 -95848-5 0  9994
2 55452  43.0042 151.5050 0001162 271.1455  88.9254 15.02534827165621
Epoch: 2026-02-03T14:38Z
TLE epoch observation values (Epoch: 2026-02-03T14:38:27.500Z)
Latitude
-0.00002°
Longitude
158.10189°
Altitude
558.846 km
Speed
7.584 km/s
True Right ascension
10h 06m 01s
True Declination
0° 00' 00"
Sunlit
Object was in full shadow at epoch
Visualization orbit readout
Latitude
Unknown
Longitude
Unknown
Altitude
Unknown
Speed
Unknown
Apparent Right ascension
Unknown
Apparent Declination
Unknown
Sunlit
N/A
Visualization observer readout
Local Sidereal Time
04:39:19
Azimuth
Unknown
Elevation
Unknown
Doppler factor
Unknown
Orbital elements
Apogee altitude
561.813 km
Perigee altitude
560.2 km
Semi-major axis
6,939.143 km
Eccentricity
0.00012
Inclination
43.0042°
RAAN
151.505°
Arg. of periapsis
271.1455°
True anomaly
88.93871°
Mean anomaly
88.9254°
Eccentric anomaly
88.93206°
Mean motion
3.75478 °/min
Orbital period
95.88 mins
BSTAR
-0.0000095848
Loading maneuver chart data...
Computing Atmospheric mass density...
Loading historical data...
Loading historical data...
Loading historical data...
Loading historical data...
Loading historical data...
Loading historical data...
Loading historical data...

Documentation

Showing up to 5 results
|